Location: Newark
(47.0000°N, 7.6833°E)
Time: 11:50:17
(UTC+00:00)

NO-84 - Visible Passes

Search period start: 19 October 2019 00:00
Search period end: 29 October 2019 00:00
Orbit: 333 x 507 km, 55.0° (Epoch: 16 October)

Date Brightness Start Highest point End Pass type
(mag) Time Alt. Az. Time Alt. Az. Time Alt. Az.
19 Oct ? 02:25:46 12° ENE 02:25:46 12° ENE 02:26:07 10° ENE visible
19 Oct ? 03:58:46 35° NNW 04:00:02 51° NNE 04:03:50 10° ESE visible
20 Oct ? 03:13:46 33° ENE 03:13:46 33° ENE 03:16:29 10° E visible
20 Oct ? 04:46:46 17° WNW 04:49:31 52° SW 04:53:14 10° SE visible
21 Oct ? 02:28:51 11° E 02:28:51 11° E 02:29:02 10° E visible
21 Oct ? 04:01:51 63° WNW 04:02:25 81° SW 04:06:17 10° SE visible
22 Oct ? 03:17:02 30° ESE 03:17:02 30° ESE 03:19:07 10° ESE visible
22 Oct ? 04:50:04 18° W 04:51:31 22° SW 04:54:33 10° S visible
23 Oct ? 04:05:22 31° SSW 04:05:22 31° SSW 04:08:03 10° SSE visible
24 Oct ? 03:20:47 13° SE 03:20:47 13° SE 03:21:14 10° SE visible
28 Oct ? 18:27:01 10° SSW 18:27:12 11° S 18:27:12 11° S visible
